Date,TemperatureHighF,TemperatureAvgF,TemperatureLowF,DewpointHighF,DewpointAvgF,DewpointLowF,HumidityHigh,HumidityAvg,HumidityLow,PressureMaxIn,PressureMinIn,WindSpeedMaxMPH,WindSpeedAvgMPH,GustSpeedMaxMPH,PrecipitationSumIn
2013-2-1,52.0,47.0,41.0,46.0,42.9,38.0,94,86,70,29.87,29.79,2,0,6,0.09
2013-2-2,44.0,41.7,38.0,41.0,38.6,34.0,93,89,79,29.84,29.71,2,1,5,0.00
2013-2-3,50.0,44.7,37.0,43.0,40.7,34.0,93,86,74,29.77,29.68,3,2,7,0.08
2013-2-4,52.0,47.0,44.0,42.0,40.6,38.0,90,79,59,29.68,29.36,4,1,7,0.06
2013-2-5,50.0,46.4,44.0,42.0,40.3,38.0,88,79,64,29.42,29.31,4,2,9,0.25
2013-2-6,52.0,46.1,43.0,41.0,37.9,33.0,86,73,54,29.52,29.26,5,2,9,0.09
2013-2-7,50.0,43.2,37.0,39.0,32.5,29.0,83,67,47,29.64,29.27,5,1,9,0.11
2013-2-8,46.0,41.6,36.0,36.0,33.9,31.0,85,74,60,29.77,29.64,2,0,4,0.00
2013-2-9,47.0,42.9,40.0,39.0,36.6,34.0,86,78,63,29.80,29.71,2,0,3,0.00
2013-2-10,48.0,42.2,35.0,39.0,35.0,31.0,89,76,53,29.83,29.78,2,0,5,0.00
2013-2-11,49.0,44.2,39.0,39.0,36.3,34.0,85,74,58,29.82,29.78,3,1,6,0.00
2013-2-12,51.0,47.5,45.0,45.0,42.8,39.0,91,84,73,29.87,29.77,4,2,14,0.03
2013-2-13,49.0,46.5,44.0,44.0,39.2,36.0,88,76,65,29.96,29.77,3,1,7,0.02
2013-2-14,51.0,46.4,43.0,42.0,40.0,38.0,85,79,66,30.02,29.96,4,2,7,0.06
2013-2-15,55.0,45.1,38.0,41.0,39.2,36.0,92,81,58,30.01,29.66,2,1,4,0.03
2013-2-16,54.0,46.1,41.0,42.0,37.9,34.0,91,74,50,29.67,29.58,5,2,9,0.00
2013-2-17,49.0,43.6,41.0,35.0,33.0,31.0,75,66,53,29.72,29.58,3,1,8,0.00
2013-2-18,48.0,42.5,38.0,36.0,32.9,29.0,80,69,55,29.58,29.23,3,1,6,0.00
2013-2-19,53.0,42.7,37.0,33.0,30.8,29.0,78,64,43,29.47,29.20,4,1,8,0.00
2013-2-20,46.0,40.9,35.0,37.0,33.0,29.0,85,74,58,29.52,29.46,3,1,6,0.08
2013-2-21,45.0,41.9,39.0,38.0,36.0,34.0,89,79,68,29.53,29.47,4,2,10,0.05
2013-2-22,46.0,42.5,39.0,41.0,37.0,31.0,88,81,67,29.52,29.19,6,3,15,0.45
2013-2-23,52.0,43.5,39.0,36.0,33.3,32.0,79,68,48,29.75,29.36,3,2,9,0.03
2013-2-25,52.0,42.5,39.0,32.0,29.7,25.0,75,62,35,29.76,29.58,4,2,10,0.00
2013-2-26,50.0,43.7,38.0,32.0,29.9,27.0,76,59,41,29.81,29.65,3,2,9,0.00
2013-2-27,52.0,45.2,39.0,42.0,37.5,31.0,87,75,56,29.76,29.65,3,1,9,0.37
2013-2-28,52.0,47.9,44.0,50.0,44.7,40.0,93,89,85,29.80,29.63,5,2,9,0.53